1341100828791,2.16214
1341100888791,2.18244
1341100948791,2.17168
1341101008791,2.17586
1341101068791,2.14837
1341101128791,2.13815
1341101188791,2.16087
1341101248791,2.16551
1341101308791,2.16700
1341101368791,2.17990
1341101428791,2.16921
1341101488791,2.15725
1341101548791,2.16058
1341101608791,2.15688
1341101668791,2.15251
1341101728791,2.19328
1341101788791,2.17715
1341101848791,2.16602
1341101908791,2.16749
1341101968791,2.15592
1341102028791,2.18346
1341102088791,2.15784
1341102148791,2.17264
1341102208791,2.15738
1341102268791,2.16146
1341102328791,2.15932
1341102388791,2.15835
1341102448791,2.18906
1341102508791,2.17550
1341102568791,2.18036
1341102628791,2.17671
1341102688791,2.16523
1341102748791,2.17873
1341102808791,2.18041
1341102868791,2.18192
1341102928791,2.16145
1341102988791,2.14962
1341103048791,2.15694
1341103108791,2.17658
1341103168791,2.17204
1341103228791,2.16660
1341103288791,2.17532
1341103348791,2.18049
1341103408791,2.17718
1341103468791,2.15074
1341103528791,2.15502
1341103588791,2.17473
1341103648791,2.16430
1341103708791,2.15237
1341103768791,2.16091
1341103828791,2.17723
1341103888791,2.13288
1341103948791,2.14476
1341104008791,2.16136
1341104068791,2.15895
1341104128791,2.17860
1341104188791,2.16029
1341104248791,2.17082
1341104308791,2.14938
1341104368791,2.15440
1341104428802,2.14958
1341104488801,2.14749
1341104548801,2.18590
1341104608802,2.15661
1341104668802,2.15708
1341104728802,2.15663
1341104788802,2.17270
1341104848802,2.16312
1341104908802,2.15117
1341104968802,2.17310
1341105028802,2.18007
1341105088802,2.14760
1341105148802,2.16063
1341105208801,2.16279
1341105268801,2.16336
1341105328801,2.15723
1341105388801,2.13996
1341105448801,2.14850
1341105508801,2.13591
1341105568801,2.15319
1341105628802,2.12147
1341105688802,2.13761
1341105748802,2.12674
1341105808802,2.13215
1341105868801,2.12063
1341105928801,2.13614
1341105988802,2.13051
1341106048802,2.14501
1341106108802,2.05526
1341106168802,2.15109
1341106228802,2.13894
1341106288802,2.13975
1341106348802,2.13478
1341106408802,2.14964
1341106468802,2.13325
1341106528801,2.12492
1341106588801,2.12642
1341106648801,2.12765
1341106708801,2.13053
1341106768801,2.12860
1341106828801,2.11871
1341106888801,2.09947
1341106948802,2.12430
1341107008802,2.13647
1341107068802,2.13699
1341107128802,2.11872
1341107188801,2.13258
1341107248801,2.13182
1341107308802,2.14299
1341107368802,2.10635
1341107428802,2.12055
1341107488802,2.11375
1341107548802,2.12838
1341107608802,2.14034
1341107668802,2.12526
1341107728802,2.12686
1341107788802,2.12488
1341107848802,2.12161
1341107908801,2.08547
1341107968801,2.11576
1341108028811,2.13565
1341108088811,2.11697
1341108148811,2.12776
1341108208811,2.12874
1341108268811,2.44455
1341108328811,2.11755
1341108388811,2.11180
1341108448811,2.12448
1341108508811,2.12049
1341108568811,2.09851
1341108628811,2.11594
1341108688811,2.10651
1341108748811,2.12336
1341108808811,2.10600
1341108868811,2.09830
1341108928811,2.11781
1341108988811,2.12308
1341109048811,2.11771
1341109108811,2.10313
1341109168811,2.12578
1341109228811,2.11062
1341109288811,2.12353
1341109348811,2.11332
1341109408811,2.12575
1341109468811,2.15184
1341109528811,2.08611
1341109588811,2.11861
1341109648811,2.11918
1341109708811,2.09286
1341109768811,2.10487
1341109828811,2.12543
1341109888811,2.08329
1341109948811,2.10675
1341110008811,2.12705
1341110068811,2.10554
1341110128811,2.12188
1341110188811,2.10815
1341110248811,2.10861
1341110308811,2.08304
1341110368811,2.12298
1341110428811,2.12078
1341110488811,2.14849
1341110548811,2.10121
1341110608811,2.09140
1341110668811,2.10327
1341110728811,2.08528
1341110788811,2.07979
1341110848811,2.10944
1341110908811,2.10744
1341110968811,2.10325
1341111028811,2.09603
1341111088811,2.09511
1341111148811,2.12055
1341111208811,2.11066
1341111268811,2.11047
1341111328811,2.10915
1341111388811,2.10148
1341111448811,2.11829
1341111508811,2.09815
1341111568811,2.09338
1341111628821,2.08945
1341111688821,2.08375
1341111748821,2.10024
1341111808821,2.11824
1341111868821,2.09558
1341111928821,2.09342
1341111988821,2.09885
1341112048821,2.09739
1341112108821,2.11837
1341112168821,2.07865
1341112228821,2.10162
1341112288821,2.12753
1341112348821,2.13776
1341112408821,2.09681
1341112468821,2.11068
1341112528821,2.09495
1341112588821,2.09968
1341112648821,2.09433
1341112708821,2.11650
1341112768821,2.10214
1341112828821,2.08674
1341112888821,2.12926
1341112948821,2.10952
1341113008821,2.12238
1341113068821,2.13480
1341113128821,2.10472
1341113188821,2.13637
1341113248821,2.11121
1341113308821,2.10670
1341113368821,2.10573
1341113428821,2.13084
1341113488821,2.09585
1341113548821,2.12471
1341113608821,2.12371
1341113668821,2.12780
1341113728821,2.10757
1341113788821,2.12347
1341113848821,2.11467
1341113908821,2.11202
1341113968821,2.10549
1341114028821,2.13222
1341114088821,2.10309
1341114148821,2.13555
1341114208821,2.12043
1341114268821,2.10423
1341114328821,2.13410
1341114388821,2.12920
1341114448821,2.11856
1341114508821,2.11594
1341114568821,2.09751
1341114628821,2.12844
1341114688821,2.10305
1341114748821,2.09853
1341114808821,2.12377
1341114868821,2.13262
1341114928821,2.12870
1341114988821,2.10784
1341115048821,2.11376
1341115108821,2.10695
1341115168821,2.11345
1341115228830,2.11687
1341115288830,2.12669
1341115348830,2.12487
1341115408830,2.13718
1341115468830,2.12910
1341115528830,2.12550
1341115588830,2.12467
1341115648830,2.11243
1341115708830,2.11049
1341115768830,2.11591
1341115828830,2.13205
1341115888830,2.14026
1341115948830,2.12873
1341116008830,2.13207
1341116068830,2.11108
1341116128830,2.11007
1341116188830,2.11361
1341116248830,2.12197
1341116308830,2.11309
1341116368830,2.11757
1341116428830,2.11723
1341116488830,2.12691
1341116548830,2.13245
1341116608830,2.12834
1341116668830,2.13278
1341116728830,2.14899
1341116788830,2.12549
1341116848830,2.12380
1341116908830,2.14028
1341116968830,2.12989
1341117028830,2.14045
1341117088830,2.13666
1341117148830,2.11725
1341117208830,2.13574
1341117268830,2.14457
1341117328830,2.15044
1341117388830,2.13349
1341117448830,2.12243
1341117508830,2.15215
1341117568830,2.14686
1341117628830,2.15599
1341117688830,2.13125
1341117748830,2.14939
1341117808830,2.14289
1341117868830,2.12482
1341117928830,2.13757
1341117988830,2.12923
1341118048830,2.13657
1341118108830,2.13116
1341118168830,2.11520
1341118228830,2.14835
1341118288830,2.14655
1341118348830,2.11726
1341118408830,2.12644
1341118468830,2.14236
1341118528830,2.12903
1341118588830,2.15606
1341118648830,2.12562
1341118708830,2.13775
1341118768830,2.13819
1341118828840,2.11079
1341118888840,2.12946
1341118948840,2.13437
1341119008839,2.12624
1341119068839,2.13210
1341119128839,2.14575
1341119188840,2.11784
1341119248840,2.14766
1341119308840,2.13603
1341119368840,2.14127
1341119428840,2.14537
1341119488840,2.14591
1341119548840,2.13303
1341119608840,2.15095
1341119668840,2.14261
1341119728839,2.13640
1341119788839,2.14432
1341119848839,2.13689
1341119908839,2.12601
1341119968839,2.13094
1341120028839,2.14185
1341120088839,2.13263
1341120148839,2.13395
1341120208840,2.13356
1341120268840,2.12463
1341120328840,2.13318
1341120388839,2.13610
1341120448839,2.13836
1341120508840,2.13519
1341120568840,2.13412
1341120628840,2.14041
1341120688840,2.13146
1341120748840,2.13457
1341120808840,2.13774
1341120868840,2.12256
1341120928840,2.13558
1341120988840,2.13685
1341121048839,2.13830
1341121108839,2.13814
1341121168839,2.13592
1341121228839,2.14054
1341121288839,2.14042
1341121348839,2.15167
1341121408839,2.13416
1341121468839,2.13724
1341121528840,2.14545
1341121588840,2.14137
1341121648840,2.14743
1341121708839,2.15862
1341121768839,2.15992
1341121828839,2.16680
1341121888840,2.14782
1341121948840,2.12740
1341122008840,2.15037
1341122068840,2.17066
1341122128840,2.15044
1341122188840,2.14515
1341122248840,2.14621
1341122308840,2.13075
1341122368840,2.14878
1341122428849,2.14781
1341122488849,2.12827
1341122548849,2.14219
1341122608849,2.12735
1341122668849,2.11328
1341122728849,2.16159
1341122788849,2.15115
1341122848849,2.14448
1341122908849,2.13004
1341122968849,2.13964
1341123028849,2.16509
1341123088849,2.15972
1341123148849,2.16080
1341123208849,2.14863
1341123268849,2.14875
1341123328849,2.16571
1341123388849,2.13411
1341123448849,2.15375
1341123508849,2.12731
1341123568849,2.14402
1341123628849,2.16218
1341123688849,2.15131
1341123748849,2.13626
1341123808849,2.13738
1341123868849,2.13439
1341123928849,2.14761
1341123988849,2.13898
1341124048849,2.15330
1341124108849,2.13340
1341124168849,2.14621
1341124228849,2.14242
1341124288849,2.13719
1341124348849,2.12922
1341124408849,2.13162
1341124468849,2.11923
1341124528849,2.13628
1341124588849,2.11149
1341124648849,2.12600
1341124708849,2.12927
1341124768849,2.11647
1341124828849,2.12141
1341124888849,2.13232
1341124948849,2.14424
1341125008849,2.12769
1341125068849,2.14433
1341125128849,2.14948
1341125188849,2.13606
1341125248849,2.13422
1341125308849,2.13338
1341125368849,2.14673
1341125428849,2.16162
1341125488849,2.13518
1341125548849,2.12052
1341125608849,2.12694
1341125668849,2.14371
1341125728849,2.14318
1341125788849,2.13668
1341125848849,2.15930
1341125908849,2.15438
1341125968849,2.12480
1341126028858,2.11747
1341126088858,2.13339
1341126148858,2.12990
1341126208858,2.11749
1341126268858,2.13641
1341126328858,2.14846
1341126388858,2.13743
1341126448858,2.13684
1341126508858,2.15071
1341126568858,2.13772
1341126628858,2.14533
1341126688858,2.13150
1341126748858,2.13291
1341126808858,2.14509
1341126868858,2.17095
1341126928858,2.21493
1341126988858,2.21861
1341127048858,2.23262
1341127108858,2.24002
1341127168858,2.23641
1341127228858,2.21443
1341127288858,2.23388
1341127348858,2.23081
1341127408858,2.20567
1341127468858,2.18511
1341127528858,2.18229
1341127588858,2.18172
1341127648858,2.17659
1341127708858,2.18182
1341127768858,2.16014
1341127828858,2.18679
1341127888858,2.16353
1341127948858,2.15209
1341128008858,2.15677
1341128068858,2.16618
1341128128858,2.15687
1341128188858,2.15529
1341128248858,2.14607
1341128308858,2.09787
1341128368858,2.14349
1341128428858,2.14746
1341128488858,2.13751
1341128548858,2.14679
1341128608858,2.14393
1341128668858,2.15803
1341128728858,2.13046
1341128788858,2.13858
1341128848858,2.14323
1341128908858,2.14831
1341128968858,2.12548
1341129028858,2.14070
1341129088858,2.13198
1341129148858,2.11762
1341129208858,2.11732
1341129268858,2.14462
1341129328858,2.13296
1341129388858,2.09339
1341129448858,2.13628
1341129508858,2.12630
1341129568858,2.13235
1341129628867,2.14308
1341129688867,2.14201
1341129748867,2.13639
1341129808867,2.12394
1341129868867,2.13155
1341129928867,2.11081
1341129988867,2.11083
1341130048867,2.12784
1341130108867,2.13451
1341130168867,2.14060
1341130228867,2.13615
1341130288867,2.10631
1341130348867,2.11440
1341130408867,2.14529
1341130468867,2.11404
1341130528867,2.12153
1341130588867,2.12691
1341130648867,2.14213
1341130708867,2.09833
1341130768867,2.12383
1341130828867,2.12239
1341130888867,2.12974
1341130948867,2.13048
1341131008867,2.14006
1341131068867,2.12106
1341131128867,2.12822
1341131188867,2.11511
1341131248867,2.12734
1341131308867,2.14538
1341131368867,2.13128
1341131428867,2.14337
1341131488867,2.11998
1341131548867,2.15791
1341131608867,2.14314
1341131668867,2.14851
1341131728867,2.13324
1341131788867,2.14424
1341131848867,2.13938
1341131908867,2.14127
1341131968867,2.12977
1341132028867,2.13647
1341132088867,2.13142
1341132148867,2.14798
1341132208867,2.12016
1341132268867,2.13563
1341132328867,2.11424
1341132388867,2.13652
1341132448867,2.14275
1341132508867,2.15211
1341132568867,2.14482
1341132628867,2.13078
1341132688867,2.14787
1341132748867,2.13473
1341132808867,2.15134
1341132868867,2.15387
1341132928867,2.13628
1341132988867,2.14318
1341133048867,2.15755
1341133108867,2.14402
1341133168867,2.13140
1341133228876,2.14658
1341133288876,2.16178
1341133348876,2.17441
1341133408876,2.14679
1341133468876,2.15142
1341133528876,2.15283
1341133588876,2.18033
1341133648876,2.16762
1341133708876,2.16802
1341133768876,2.18550
1341133828876,2.16745
1341133888876,2.17897
1341133948876,2.17414
1341134008876,2.17358
1341134068876,2.17621
1341134128876,2.17767
1341134188876,2.17397
1341134248876,2.19333
1341134308876,2.16519
1341134368876,2.15969
1341134428876,2.16116
1341134488876,2.15640
1341134548876,2.17175
1341134608876,2.18283
1341134668876,2.15444
1341134728876,2.15890
1341134788876,2.18847
1341134848876,2.17832
1341134908876,2.17843
1341134968876,2.19114
1341135028876,2.16035
1341135088876,2.19806
1341135148876,2.17671
1341135208876,2.18901
1341135268876,2.16787
1341135328876,2.19558
1341135388876,2.17889
1341135448876,2.15395
1341135508876,2.17890
1341135568876,2.17476
1341135628876,2.19300
1341135688876,2.17689
1341135748876,2.17280
1341135808876,2.18755
1341135868876,2.18644
1341135928876,2.19006
1341135988876,2.18781
1341136048876,2.16539
1341136108876,2.18571
1341136168876,2.17663
1341136228876,2.19175
1341136288876,2.16069
1341136348876,2.19960
1341136408876,2.18964
1341136468876,2.17769
1341136528876,2.17084
1341136588876,2.18775
1341136648876,2.17519
1341136708876,2.17056
1341136768876,2.19329
1341136828885,2.18884
1341136888885,2.20361
1341136948885,2.17000
1341137008885,2.19119
1341137068885,2.19565
1341137128885,2.19766
1341137188885,2.17967
1341137248885,2.17989
1341137308885,2.17680
1341137368885,2.17643
1341137428885,2.17960
1341137488885,2.17209
1341137548885,2.19031
1341137608885,2.18547
1341137668885,2.18945
1341137728885,2.19281
1341137788885,2.18366
1341137848885,2.20160
1341137908885,2.19497
1341137968885,2.19492
1341138028885,2.17794
1341138088885,2.18855
1341138148885,2.17500
1341138208885,2.19673
1341138268885,2.18160
1341138328885,2.18931
1341138388885,2.16696
1341138448885,2.18517
1341138508885,2.19244
1341138568885,2.19448
1341138628885,2.19438
1341138688885,2.20309
1341138748885,2.18000
1341138808885,2.20238
1341138868885,2.20458
1341138928885,2.19164
1341138988885,2.21353
1341139048885,2.22537
1341139108885,2.19612
1341139168885,2.22151
1341139228885,2.19155
1341139288885,2.20874
1341139348885,2.21469
1341139408885,2.21131
1341139468885,2.19980
1341139528885,2.17022
1341139588885,2.19313
1341139648885,2.20246
1341139708885,2.18800
1341139768885,2.20242
1341139828885,2.19331
1341139888885,2.21122
1341139948885,2.19072
1341140008885,2.21253
1341140068885,2.19713
1341140128885,2.19029
1341140188885,2.20022
1341140248885,2.23482
1341140308885,2.20193
1341140368885,2.21639
1341140428894,2.22204
1341140488894,2.22333
1341140548894,2.20042
1341140608894,2.22466
1341140668894,2.22208
1341140728894,2.22191
1341140788894,2.23637
1341140848894,2.21037
1341140908894,2.23261
1341140968894,2.22864
1341141028894,2.21860
1341141088894,2.23671
1341141148894,2.22018
1341141208894,2.30220
1341141268894,2.21626
1341141328894,2.21213
1341141388894,2.21838
1341141448894,2.25163
1341141508894,2.22197
1341141568894,2.24767
1341141628894,2.21962
1341141688894,2.25012
1341141748894,2.23101
1341141808894,2.23395
1341141868894,2.23647
1341141928894,2.24730
1341141988894,2.23298
1341142048894,2.23886
1341142108894,2.24067
1341142168894,2.25256
1341142228894,2.23888
1341142288894,2.25901
1341142348894,2.22652
1341142408894,2.25696
1341142468894,2.25910
1341142528894,2.26088
1341142588894,2.21372
1341142648894,2.26307
1341142708894,2.24209
1341142768894,2.27112
1341142828894,2.25755
1341142888894,2.26015
1341142948894,2.25967
1341143008894,2.26768
1341143068894,2.25952
1341143128894,2.23860
1341143188894,2.23835
1341143248894,2.24501
1341143308894,2.27562
1341143368894,2.23633
1341143428894,2.25445
1341143488894,2.25902
1341143548894,2.25482
1341143608894,2.27190
1341143668894,2.25646
1341143728894,2.26122
1341143788894,2.26385
1341143848894,2.27708
1341143908894,2.28247
1341143968894,2.28574
1341144028903,2.27240
1341144088903,2.27046
1341144148903,2.27173
1341144208903,2.29510
1341144268903,2.30415
1341144328903,2.30739
1341144388903,2.30165
1341144448903,2.28830
1341144508903,2.30291
1341144568903,2.27389
1341144628903,2.27884
1341144688903,2.29821
1341144748903,2.29263
1341144808903,2.31047
1341144868903,2.31443
1341144928903,2.26810
1341144988903,2.30378
1341145048903,2.27771
1341145108903,2.28722
1341145168903,2.28383
1341145228903,2.27964
1341145288903,2.29469
1341145348903,2.30942
1341145408903,2.28893
1341145468903,2.29138
1341145528903,2.28687
1341145588903,2.28967
1341145648903,2.24977
1341145708903,2.30001
1341145768903,2.30039
1341145828903,2.31870
1341145888903,2.32751
1341145948903,2.31394
1341146008903,2.34606
1341146068903,2.31885
1341146128903,2.31728
1341146188903,2.33423
1341146248903,2.26792
1341146308903,2.29536
1341146368903,2.34778
1341146428903,2.30762
1341146488903,2.32758
1341146548903,2.31974
1341146608903,2.34753
1341146668903,2.31856
1341146728903,2.33899
1341146788903,2.34303
1341146848903,2.34666
1341146908903,2.37501
1341146968903,2.32840
1341147028903,2.34200
1341147088903,2.32113
1341147148903,2.30225
1341147208903,2.32098
1341147268903,2.35035
1341147328903,2.36777
1341147388903,2.33226
1341147448903,2.34225
1341147508903,2.36607
1341147568903,2.39037
1341147628912,2.36987
1341147688912,2.36368
1341147748912,2.35579
1341147808912,2.37334
1341147868912,2.36789
1341147928912,2.38404
1341147988912,2.35310
1341148048912,2.39066
1341148108912,2.37012
1341148168912,2.39413
1341148228912,2.37805
1341148288912,2.39729
1341148348912,2.37967
1341148408912,2.38610
1341148468912,2.41125
1341148528912,2.38816
1341148588912,2.40610
1341148648912,2.41877
1341148708912,2.39037
1341148768912,2.39175
1341148828912,2.34851
1341148888912,2.40822
1341148948912,2.34951
1341149008912,2.40981
1341150148912,2.39162
1341150208912,1.97307
1341150268912,2.39955
1341150328912,2.40205
1341150388912,2.38892
1341150448912,2.37823
1341150508912,2.34699
1341150568912,2.37563
1341150628912,2.37538
1341150688912,2.38097
1341150748912,2.37406
1341150808912,2.35924
1341150868912,2.35641
1341150928912,2.34789
1341150988912,2.35860
1341151048912,2.38628
1341151108912,2.57057
1341151168912,2.36522
1341151228921,2.37055
1341151288921,2.41159
1341151348921,2.35400
1341151408921,2.36557
1341151468921,2.33692
1341151528921,2.35735
1341151588921,2.44593
1341151648921,2.42286
1341151708921,2.31882
1341151768921,2.33055
1341151828921,2.30952
1341151888921,2.32627
1341151948921,2.28912
1341152008921,2.32100
1341152068921,2.32151
1341152128921,2.32376
1341152188921,2.29946
1341152248921,2.36154
1341152308921,2.29504
1341152368921,2.29727
1341152428921,2.28295
1341152488921,2.31812
1341152548921,2.29412
1341152608921,2.29341
1341152668921,2.32057
1341152728921,2.29744
1341152788921,2.30564
1341152848921,2.28836
1341152908921,2.28011
1341152968921,2.29693
1341153028921,2.29919
1341153088921,2.30262
1341153148921,2.27747
1341153208921,2.29074
1341153268921,2.29773
1341153328921,2.27822
1341153388921,2.27578
1341153448921,2.25716
1341153508921,2.26375
1341153568921,2.27363
1341153628921,2.28716
1341153688921,2.27021
1341153748921,2.32924
1341153808921,2.29243
1341153868921,2.26370
1341153928921,2.28025
1341153988921,2.24559
1341154048921,2.26882
1341154108921,2.24337
1341154168921,2.26177
1341154228921,2.24161
1341154288921,2.25176
1341154348921,2.27296
1341154408921,2.24577
1341154468921,2.24894
1341154528921,2.25870
1341154588921,2.23694
1341154648921,2.23884
1341154708921,2.22893
1341154768921,2.25017
1341154828931,2.26915
1341154888931,2.26296
1341154948931,2.25174
1341155008931,2.28479
1341155068931,2.23583
1341155128931,2.24768
1341155188931,2.22209
1341155248931,2.26708
1341155308931,2.27317
1341155368931,2.24308
1341155428931,2.23971
1341155488931,2.27370
1341155548931,2.21736
1341155608931,2.21906
1341155668931,2.24592
1341155728931,2.25168
1341155788931,2.28259
1341155848931,2.25228
1341155908931,2.25994
1341155968931,2.26166
1341156028931,2.26860
1341156088931,2.24865
1341156148931,2.23281
1341156208931,2.26154
1341156268931,2.25644
1341156328931,2.26331
1341156388931,2.22914
1341156448931,2.28469
1341156508931,2.28010
1341156568931,2.26581
1341156628931,2.27844
1341156688931,2.28307
1341156748931,2.28179
1341156808931,2.26533
1341156868931,2.27647
1341156928931,2.29043
1341156988931,2.29823
1341157048931,2.31235
1341157108931,2.30779
1341157168931,2.30734
1341157228931,2.32773
1341157288931,2.28347
1341157348931,2.31538
1341157408931,2.32142
1341157468931,2.31718
1341157528931,2.34581
1341157588931,2.30135
1341157648931,2.38502
1341157708931,2.36594
1341157768931,2.36612
1341157828931,2.36603
1341157888931,2.35412
1341157948931,2.36445
1341158008931,2.33141
1341158068931,2.36000
1341158128931,2.35710
1341158188931,2.37828
1341158248931,2.35767
1341158308931,2.32651
1341158368931,2.33401
1341158428941,2.31273
1341158488941,2.32592
1341158548941,2.33157
1341158608941,2.35162
1341158668941,2.36329
1341158728941,2.36574
1341158788941,2.36846
1341158848941,2.38716
1341158908941,2.39768
1341158968941,2.33079
1341159028941,2.39803
1341159088941,2.36013
1341159148941,2.37385
1341159208941,2.35979
1341159268941,2.33287
1341159328941,2.35586
1341159388941,2.35092
1341159448941,2.35297
1341159508941,2.33872
1341159568941,2.35024
1341159628941,2.36335
1341159688941,2.35422
1341159748941,2.33409
1341159808941,2.35099
1341159868941,2.32561
1341159928941,2.32717
1341159988941,2.32679
1341160048941,2.31400
1341160108941,2.30269
1341160168941,2.32701
1341160228941,2.32319
1341160288941,2.28797
1341160348941,2.31333
1341160408941,2.31285
1341160468941,2.29455
1341160528941,2.31619
1341160588941,2.32258
1341160648941,2.29272
1341160708941,2.28618
1341160768941,2.30573
1341160828941,2.27578
1341160888941,2.32135
1341160948941,2.30989
1341161008941,2.28849
1341161068941,2.30162
1341161128941,2.29446
1341161188941,2.36607
1341161248941,2.34277
1341161308941,2.28775
1341161368941,2.28256
1341161428941,2.30237
1341161488941,2.29110
1341161548941,2.27288
1341161608941,2.29174
1341161668941,2.28565
1341161728941,2.28244
1341161788941,2.27985
1341161848941,2.28782
1341161908941,2.27614
1341161968941,2.28643
1341162028951,2.28609
1341162088951,2.28542
1341162148951,2.25656
1341162208951,2.26934
1341162268951,2.28132
1341162328951,2.29879
1341162388951,2.27087
1341162448951,2.25490
1341162508951,2.27657
1341162568951,2.25690
1341162628951,2.27489
1341162688951,2.27387
1341162748951,2.29848
1341162808951,2.39637
1341162868951,2.28200
1341162928951,2.27081
1341162988951,2.26053
1341163048951,2.28597
1341163108951,2.26438
1341163168951,2.26589
1341163228951,2.26135
1341163288951,2.27188
1341163348951,2.26517
1341163408951,2.26245
1341163468951,2.24640
1341163528951,2.28477
1341163588951,2.26526
1341163648951,2.26286
1341163708951,2.24386
1341163768951,2.25987
1341163828951,2.25602
1341163888951,2.26231
1341163948951,2.27235
1341164008951,2.25813
1341164068951,2.25608
1341164128951,2.24074
1341164188951,2.24986
1341164248951,2.26269
1341164308951,2.25988
1341164368951,2.25712
1341164428951,2.24451
1341164488951,2.27187
1341164548951,2.26455
1341164608951,2.26986
1341164668951,2.25759
1341164728951,2.27351
1341164788951,2.25683
1341164848951,2.24675
1341164908951,2.23082
1341164968951,2.24154
1341165028951,2.22562
1341165088951,2.22946
1341165148951,2.22489
1341165208951,2.24902
1341165268951,2.24823
1341165328951,2.26513
1341165388951,2.25585
1341165448951,2.24704
1341165508951,2.24663
1341165568951,2.24532
1341165628961,2.24962
1341165688961,2.22135
1341165748961,2.23551
1341165808961,2.25019
1341165868961,2.26281
1341165928961,2.24316
1341165988961,2.27266
1341166048961,2.25940
1341166108961,2.25998
1341166168961,2.26010
1341166228961,2.25975
1341166288961,2.25624
1341166348961,2.29095
1341166408961,2.26899
1341166468961,2.31965
1341166528961,2.27845
1341166588961,2.27474
1341166648961,2.29605
1341166708961,2.27201
1341166768961,2.28869
1341166828961,2.28470
1341166888961,2.26080
1341166948961,2.26531
1341167008961,2.21873
1341167068961,2.25507
1341167128961,2.24418
1341167188961,2.26900
1341167248961,2.29560